Change the Weather History Date:

Sunday, December 4, 2011

  Actual Average Record
Temperature  
Mean Temperature 38 °F -  
Max Temperature 52 °F 42 °F 69 °F (1982)
Min Temperature 24 °F 24 °F 5 °F (1976)
Degree Days  
Heating Degree Days 27    
Moisture  
Dew Point 34 °F    
Average Humidity 83    
Maximum Humidity 100    
Minimum Humidity 63    
Precipitation  
Precipitation 0.00 in - - ()
Sea Level Pressure  
Sea Level Pressure 30.53 in    
Wind  
Wind Speed 3 mph (SSW)    
Max Wind Speed 14 mph    
Max Gust Speed 20 mph    
Visibility 10 miles    
Events      
Averages and records for this station are not official NWS values.
T = Trace of Precipitation, MM = Missing Value Source: NWS Daily Summary

Daily Weather History Graph

Daily Weather History Graph

Search for Another Location

Airport or City:

Trip Planner

Search our weather history database for the weather conditions in past years. The results will help you decide how hot, cold, wet, or windy it might be!

Date:

Astronomy

Dec. 04, 2011 Rise Set
Actual Time 6:57 AM EST 4:12 PM EST
Civil Twilight 6:26 AM EST 4:44 PM EST
Nautical Twilight 5:51 AM EST 5:19 PM EST
Astronomical Twilight 5:17 AM EST 5:53 PM EST
Moon 12:46 PM EST (12/4) 1:14 AM EST (12/4)
Length of Visible Light 10h 17m
Length of Day
9h 14m
Waxing Gibbous, 71% of the Moon is Illuminated
Dec 4
Waxing Gibbous
Dec 10
Full
Dec 17
Last Quarter
Dec 24
New
Jan 1
First Quarter

Hourly Weather History & Observations

Time (EST) Temp. Windchill Dew Point Humidity Pressure Visibility Wind Dir Wind Speed Gust Speed Precip Events Conditions
12:56 AM 27.0 °F - 25.0 °F 92% 30.65 in 8.0 mi Calm Calm - N/A   Clear
1:56 AM 26.1 °F - 25.0 °F 96% 30.65 in 8.0 mi Calm Calm - N/A   Clear
2:56 AM 25.0 °F - 23.0 °F 92% 30.65 in 8.0 mi Calm Calm - N/A   Clear
3:56 AM 26.1 °F - 24.1 °F 92% 30.63 in 10.0 mi Calm Calm - N/A   Clear
4:56 AM 25.0 °F - 24.1 °F 96% 30.63 in 7.0 mi Calm Calm - N/A   Clear
5:56 AM 24.1 °F - 23.0 °F 96% 30.64 in 8.0 mi Calm Calm - N/A   Partly Cloudy
6:56 AM 26.1 °F - 25.0 °F 96% 30.63 in 10.0 mi Calm Calm - N/A   Mostly Cloudy
7:40 AM 26.6 °F - 24.8 °F 93% 30.58 in 9.0 mi Calm Calm - N/A   Mostly Cloudy
7:56 AM 28.0 °F - 27.0 °F 96% 30.63 in 10.0 mi Calm Calm - N/A   Mostly Cloudy
8:56 AM 33.1 °F 30.0 °F 32.0 °F 96% 30.62 in 9.0 mi SSW 3.5 mph - N/A   Overcast
9:04 AM 33.8 °F - 32.0 °F 93% 30.57 in 9.0 mi Calm Calm - N/A   Mostly Cloudy
9:56 AM 42.1 °F 38.4 °F 36.0 °F 79% 30.59 in 10.0 mi South 5.8 mph - N/A   Clear
10:13 AM 42.8 °F 38.6 °F 35.6 °F 76% 30.55 in 10.0 mi SSW 6.9 mph - N/A   Mostly Cloudy
10:56 AM 46.0 °F 41.0 °F 37.0 °F 71% 30.57 in 10.0 mi SSW 10.4 mph - N/A   Mostly Cloudy
11:09 AM 46.4 °F 40.4 °F 37.4 °F 71% 30.51 in 10.0 mi SSW 13.8 mph - N/A   Scattered Clouds
11:35 AM 48.2 °F - 37.4 °F 66% 30.50 in 10.0 mi SSW 13.8 mph 19.6 mph N/A   Mostly Cloudy
11:56 AM 48.9 °F - 37.9 °F 66% 30.54 in 10.0 mi SSW 8.1 mph - N/A   Overcast
12:56 PM 50.0 °F - 39.0 °F 66% 30.51 in 10.0 mi SSW 11.5 mph - N/A   Overcast
1:10 PM 50.0 °F - 39.2 °F 66% 30.45 in 10.0 mi SSW 8.1 mph - N/A   Overcast
1:56 PM 52.0 °F - 39.9 °F 63% 30.48 in 10.0 mi SSW 9.2 mph - N/A   Mostly Cloudy
2:56 PM 51.8 °F - 41.0 °F 67% 30.41 in 10.0 mi SW 5.8 mph - N/A   Scattered Clouds
3:56 PM 48.9 °F - 39.9 °F 71% 30.46 in 10.0 mi SW 5.8 mph - N/A   Clear
4:56 PM 46.9 °F - 39.0 °F 74% 30.45 in 10.0 mi SSW 5.8 mph - N/A   Partly Cloudy
5:56 PM 46.9 °F - 39.0 °F 74% 30.45 in 10.0 mi South 3.5 mph - N/A   Clear
6:56 PM 44.1 °F 40.1 °F 39.0 °F 82% 30.44 in 10.0 mi South 6.9 mph - N/A   Clear
7:56 PM 45.0 °F 42.6 °F 41.0 °F 86% 30.46 in 10.0 mi SW 4.6 mph - N/A   Clear
8:56 PM 46.0 °F 41.0 °F 42.1 °F 86% 30.44 in 10.0 mi South 10.4 mph - N/A   Clear
9:56 PM 45.0 °F 40.1 °F 43.0 °F 93% 30.42 in 10.0 mi South 9.2 mph - N/A   Clear
10:56 PM 44.1 °F 40.8 °F 43.0 °F 96% 30.43 in 10.0 mi SSW 5.8 mph - N/A   Clear
11:56 PM 43.0 °F 41.3 °F 43.0 °F 100% 30.43 in 10.0 mi South 3.5 mph - N/A   Scattered Clouds